When you browse on this site, cookies collect data to enhance your experience and personalize the content and advertising you see.
Visit our Privacy Policy to learn more. By continuing to use the site, you agree to this use of cookies and data.
  • In Netherlands
  • List of Countries
  • For 7 days
  • Water Temperature
  • Satellite Maps
  • Weather Map
  • Weather Widgets
  • user-avatar
    Login

    Hourly Weather Sydney

    Today, 15 December, Saturday

    Time Temperature Precipitation Wind Pressure Humidity
    00:00 +22°C° 0.7 mm 4 mps 753 mmHg 95%
    01:00 +21°C° 0.7 mm 4 mps 753 mmHg 96%
    02:00 +21°C° 0.6 mm 4 mps 753 mmHg 96%
    03:00 +21°C° 0.6 mm 4 mps 753 mmHg 96%
    04:00 +21°C° 0 mm 2 mps 752 mmHg 94%
    05:00 +22°C° 0 mm 3 mps 753 mmHg 92%
    06:00 +24°C° 0 mm 3 mps 753 mmHg 89%
    07:00 +25°C° 0 mm 3 mps 754 mmHg 86%
    08:00 +27°C° 0.2 mm 4 mps 754 mmHg 77%
    09:00 +29°C° 0.2 mm 4 mps 754 mmHg 67%
    10:00 +32°C° 0.2 mm 5 mps 754 mmHg 58%
    11:00 +32°C° 1 mm 5 mps 754 mmHg 57%
    12:00 +33°C° 1 mm 6 mps 753 mmHg 55%
    13:00 +33°C° 1 mm 7 mps 753 mmHg 54%
    14:00 +32°C° 0.7 mm 7 mps 753 mmHg 58%
    15:00 +32°C° 0.7 mm 7 mps 752 mmHg 62%
    16:00 +31°C° 0.7 mm 8 mps 752 mmHg 66%
    17:00 +28°C° 1.1 mm 8 mps 752 mmHg 71%
    18:00 +27°C° 1.1 mm 8 mps 752 mmHg 77%
    19:00 +26°C° 1.1 mm 8 mps 753 mmHg 83%
    20:00 +24°C° 1 mm 8 mps 753 mmHg 86%
    21:00 +24°C° 1 mm 8 mps 754 mmHg 89%
    22:00 +23°C° 1 mm 8 mps 754 mmHg 92%
    23:00 +23°C° 0.8 mm 7 mps 754 mmHg 93%

    Tomorrow, 16 December, Sunday

    Time Temperature Precipitation Wind Pressure Humidity
    00:00 +23°C° 0.8 mm 7 mps 754 mmHg 93%
    01:00 +23°C° 0.8 mm 7 mps 754 mmHg 94%
    02:00 +22°C° 0 mm 6 mps 754 mmHg 95%
    03:00 +22°C° 0 mm 6 mps 754 mmHg 95%
    04:00 +22°C° 0 mm 6 mps 754 mmHg 95%
    05:00 +23°C° 0 mm 5 mps 754 mmHg 90%
    06:00 +23°C° 0 mm 5 mps 755 mmHg 85%
    07:00 +25°C° 0 mm 5 mps 755 mmHg 80%
    08:00 +28°C° 0 mm 5 mps 755 mmHg 69%
    09:00 +30°C° 0 mm 6 mps 755 mmHg 58%
    10:00 +34°C° 0 mm 7 mps 754 mmHg 46%
    11:00 +34°C° 0 mm 7 mps 754 mmHg 46%
    12:00 +34°C° 0 mm 8 mps 753 mmHg 45%
    13:00 +35°C° 0 mm 9 mps 753 mmHg 44%
    14:00 +33°C° 0.1 mm 9 mps 753 mmHg 51%
    15:00 +32°C° 0.1 mm 9 mps 752 mmHg 57%
    16:00 +31°C° 0.1 mm 9 mps 752 mmHg 63%
    17:00 +28°C° 2.1 mm 9 mps 752 mmHg 69%
    18:00 +27°C° 2.1 mm 8 mps 753 mmHg 76%
    19:00 +26°C° 2.1 mm 8 mps 753 mmHg 82%
    20:00 +24°C° 1.9 mm 7 mps 753 mmHg 84%
    21:00 +24°C° 1.9 mm 6 mps 754 mmHg 86%
    22:00 +23°C° 1.9 mm 4 mps 754 mmHg 88%
    23:00 +22°C° 0.1 mm 4 mps 754 mmHg 89%

    Day after tomorrow, 17 December, Monday

    Time Temperature Precipitation Wind Pressure Humidity
    00:00 +22°C° 0.1 mm 4 mps 754 mmHg 89%
    01:00 +21°C° 0.1 mm 3 mps 754 mmHg 90%
    02:00 +21°C° 0 mm 3 mps 754 mmHg 88%
    03:00 +20°C° 0 mm 3 mps 754 mmHg 86%
    04:00 +20°C° 0 mm 2 mps 754 mmHg 85%
    05:00 +21°C° 0 mm 2 mps 755 mmHg 78%
    06:00 +24°C° 0 mm 2 mps 755 mmHg 71%
    07:00 +25°C° 0 mm 2 mps 756 mmHg 64%
    08:00 +27°C° 0 mm 2 mps 755 mmHg 55%
    09:00 +30°C° 0 mm 2 mps 755 mmHg 46%
    10:00 +34°C° 0 mm 2 mps 755 mmHg 37%
    11:00 +35°C° 0 mm 2 mps 755 mmHg 35%
    12:00 +35°C° 0 mm 3 mps 755 mmHg 34%
    13:00 +36°C° 0 mm 3 mps 754 mmHg 33%
    14:00 +35°C° 0 mm 4 mps 754 mmHg 37%
    15:00 +34°C° 0 mm 4 mps 754 mmHg 41%
    16:00 +33°C° 0 mm 4 mps 754 mmHg 46%
    17:00 +30°C° 0 mm 4 mps 755 mmHg 55%
    18:00 +28°C° 0 mm 3 mps 755 mmHg 64%
    19:00 +27°C° 0 mm 3 mps 756 mmHg 73%
    20:00 +26°C° 0 mm 3 mps 756 mmHg 76%
    21:00 +25°C° 0 mm 2 mps 757 mmHg 80%
    22:00 +24°C° 0 mm 2 mps 757 mmHg 84%
    23:00 +24°C° 0 mm 2 mps 757 mmHg 85%

    18 December, Tuesday

    Time Temperature Precipitation Wind Pressure Humidity
    00:00 +24°C° 0 mm 2 mps 757 mmHg 87%
    01:00 +23°C° 0 mm 2 mps 757 mmHg 88%
    02:00 +22°C° 0 mm 3 mps 757 mmHg 89%
    03:00 +22°C° 0 mm 4 mps 757 mmHg 89%
    04:00 +22°C° 0 mm 4 mps 757 mmHg 90%
    05:00 +22°C° 0 mm 4 mps 758 mmHg 87%
    06:00 +23°C° 0 mm 4 mps 758 mmHg 83%
    07:00 +23°C° 0 mm 4 mps 759 mmHg 80%
    08:00 +26°C° 0 mm 4 mps 759 mmHg 74%
    09:00 +27°C° 0 mm 4 mps 759 mmHg 68%
    10:00 +28°C° 0 mm 4 mps 759 mmHg 63%
    11:00 +29°C° 0 mm 4 mps 758 mmHg 59%
    12:00 +30°C° 0 mm 5 mps 758 mmHg 56%
    13:00 +32°C° 0 mm 5 mps 758 mmHg 53%
    14:00 +32°C° 0 mm 5 mps 758 mmHg 56%
    15:00 +30°C° 0 mm 6 mps 757 mmHg 59%
    16:00 +29°C° 0 mm 6 mps 757 mmHg 62%
    17:00 +27°C° 0 mm 6 mps 758 mmHg 68%
    18:00 +26°C° 0 mm 5 mps 759 mmHg 75%
    19:00 +23°C° 0 mm 5 mps 759 mmHg 81%
    20:00 +23°C° 0 mm 5 mps 760 mmHg 82%
    21:00 +22°C° 0 mm 4 mps 760 mmHg 83%
    22:00 +22°C° 0 mm 4 mps 761 mmHg 84%
    23:00 +22°C° 0 mm 4 mps 760 mmHg 85%

    19 December, Wednesday

    Time Temperature Precipitation Wind Pressure Humidity
    00:00 +22°C° 0 mm 4 mps 760 mmHg 86%
    01:00 +21°C° 0 mm 4 mps 760 mmHg 87%
    02:00 +21°C° 0 mm 3 mps 760 mmHg 87%
    03:00 +21°C° 0 mm 3 mps 759 mmHg 88%
    04:00 +21°C° 0 mm 3 mps 759 mmHg 88%
    05:00 +21°C° 0 mm 3 mps 760 mmHg 87%
    06:00 +21°C° 0 mm 3 mps 760 mmHg 87%
    07:00 +21°C° 0 mm 3 mps 760 mmHg 86%
    08:00 +22°C° 0 mm 3 mps 760 mmHg 84%
    09:00 +24°C° 0 mm 2 mps 760 mmHg 82%
    10:00 +24°C° 0 mm 2 mps 760 mmHg 80%
    11:00 +26°C° 0.1 mm 3 mps 759 mmHg 75%
    12:00 +27°C° 0.1 mm 3 mps 758 mmHg 71%
    13:00 +28°C° 0.1 mm 3 mps 758 mmHg 66%
    14:00 +28°C° 0.6 mm 4 mps 757 mmHg 69%
    15:00 +28°C° 0.6 mm 4 mps 756 mmHg 72%
    16:00 +28°C° 0.6 mm 5 mps 756 mmHg 74%
    17:00 +27°C° 0.8 mm 5 mps 756 mmHg 80%
    18:00 +25°C° 0.8 mm 4 mps 756 mmHg 86%
    19:00 +23°C° 0.8 mm 4 mps 756 mmHg 91%
    20:00 +23°C° 1.6 mm 4 mps 756 mmHg 93%
    21:00 +23°C° 1.6 mm 4 mps 756 mmHg 94%
    22:00 +23°C° 1.6 mm 4 mps 755 mmHg 96%
    23:00 +23°C° 0.2 mm 4 mps 755 mmHg 96%

    20 December, Thursday

    Time Temperature Precipitation Wind Pressure Humidity
    00:00 +22°C° 0.2 mm 4 mps 754 mmHg 96%
    01:00 +22°C° 0.2 mm 4 mps 753 mmHg 96%
    02:00 +22°C° 0 mm 4 mps 752 mmHg 96%
    03:00 +22°C° 0 mm 4 mps 752 mmHg 96%
    04:00 +22°C° 0 mm 4 mps 752 mmHg 96%
    05:00 +26°C° 0 mm 4 mps 752 mmHg 84%
    06:00 +28°C° 0 mm 4 mps 751 mmHg 72%
    07:00 +30°C° 0 mm 5 mps 751 mmHg 60%
    08:00 +35°C° 0 mm 5 mps 751 mmHg 49%
    09:00 +39°C° 0 mm 6 mps 751 mmHg 37%
    10:00 +42°C° 0 mm 6 mps 751 mmHg 25%
    11:00 +45°C° 0 mm 6 mps 750 mmHg 23%
    12:00 +46°C° 0 mm 6 mps 750 mmHg 20%
    13:00 +47°C° 0 mm 6 mps 749 mmHg 17%
    14:00 +45°C° 0 mm 6 mps 749 mmHg 20%
    15:00 +42°C° 0 mm 6 mps 749 mmHg 23%
    16:00 +41°C° 0 mm 6 mps 749 mmHg 27%
    17:00 +35°C° 0 mm 6 mps 750 mmHg 41%
    18:00 +30°C° 0 mm 6 mps 751 mmHg 56%
    19:00 +26°C° 0 mm 6 mps 751 mmHg 71%
    20:00 +24°C° 0 mm 6 mps 752 mmHg 75%
    21:00 +23°C° 0 mm 6 mps 753 mmHg 78%
    22:00 +22°C° 0 mm 5 mps 754 mmHg 82%
    23:00 +21°C° 0 mm 5 mps 754 mmHg 82%
    Show more